OBJECT D, 43665

Orbit data source: Space-Track

You're viewing an Uncataloged Satellite

Recently launched and/or uncataloged satellites may have evolving metadata. Metadata may include but not limited to: Owner, Maufacturer, Bus, Motor, and Mission.

OBJECT D, 43665 is a Chinese satellite in LEO that was launched on Mon, 29 Oct 2018 UTC via a CHANG ZHENG 2C launch vehicle from the Jiuquan Satellite Launch Center, China (JSC). Unknown objects in Earth's orbit typically refer to objects detected orbiting the Earth but have not yet been identified or cataloged. These objects could be anything from previously untracked satellites, spent rocket stages, debris from satellite collisions, or even natural meteoroids temporarily captured by Earth's gravity.

Not visible in the next 10 days
OBJECT D details
Identifier
43665, 2018-083D
Orbit
LEO
Last TLE update6 hours ago
Origin
Flag of CNGUOX/CTYK (CN / PRC)
ManufacturerChangsha Tianyi
MissionCommercial Imaging
Bus & MotorCUBESAT 6U?, Unknown motor
Mass8 kg wet, 8 kg dry
Launch date (UTC)
2018-10-29 (6 years ago)
Launch vehicle
CHANG ZHENG 2C
Launch site
Jiuquan Satellite Launch Center, China (JSC)
Object typeUnknown
Shape & HBRBox, 0.3 m
Radar Cross Section0.080 m², Medium (>0.1 m² and < 1m²)

Expand to show TLE details & history

TLE from 6 hours ago
0 OBJECT D
1 43665U 18083D   24348.07473357  .00354917  00000-0  16844-2 0  9995
2 43665  97.3074  20.3356 0001574  19.2824 340.8504 15.82012600340778
Epoch: 2024-12-13T01:47Z
Definitive object data (Epoch: 2024-12-13T01:47:36.98Z)
Latitude-0.00003°
Longitude-88.81441°
Altitude326.93 km
Speed7.713 km/s
True Right ascension01h 21m 20s
True Declination0° 00' 00"
Sunlit
Object was in full shadow at TLE epoch
Visualization TLE readout
Latitude11.73005°
Longitude-90.06033°
Altitude325.584 km
Speed7.715 km/s
Apparent Right ascension22h 31m 47s
Apparent Declination-20° 31' 35"
Sunlit
Object is in full shadow
Visualization observer readout
Local Sidereal Time06:24:25
Azimuth271.016° WNW
Elevation-34.329°
Doppler factor1
Orbital elements
Apogee altitude322.684 km
Perigee altitude320.575 km
Semi-major axis6,699.766 km
Eccentricity0.0001574
Inclination97.3074°
RAAN20.3356°
Arg. of periapsis19.2824°
True anomaly340.84448°
Mean anomaly340.8504°
Eccentric anomaly340.84744°
Mean motion3.9578 °/min
BSTAR0.0016844
Orbital period90.96 mins
Loading maneuver chart data...
Loading historical data...
Loading historical data...
Loading historical data...
Loading historical data...
Loading historical data...
Loading historical data...
Loading historical data...

OBJECT D Visibility forecast

Observer location: undefined°, undefined

OBJECT D is not visible in the next 10 days
Span
Click to sort rows by Start time (UTC) header in descending order
Start Az.
Max El. time (UTC)
Max El. Az.
Max El.
End time (UTC)
End Az.
|